Flag for Italy Weather past 2 weeks in Venice, Italy

Now
66 °F

Scattered clouds.


Feels Like: 66 °F
Forecast: 60 / 70 °F
Wind: 5 mph from East

Location: Venice / Tessera

Current Time: May 26, 2015 at 12:17:20 PM

Latest Report: May 26, 2015 at 10:20 AM


Visibility: 6 mi

Pressure: 29.83 "Hg

Humidity: 78%

Dew point: 59 °F

Location of VeniceLocation

Historic Weather in Venice — Graph

°F

Venice temperature yesterday

Maximum temperature yesterday: 77 °F (at 3:50 PM)
Minimum temperature yesterday: 59 °F (at 4:50 AM)
Average temperature yesterday: 67 °F

Past Weeks' High & Low Weather Summary

 TemperatureHumidityPressure
High79 °F (May 17, 11:50 AM)100% (May 24, 4:20 AM)30.30 "Hg (May 24, 4:20 AM)
Low54 °F (May 24, 4:20 AM)37% (May 17, 12:50 PM)29.68 "Hg (May 15, 4:20 AM)
Average66 °F72%29.93 "Hg
* Reported May 11 10:20 AM — May 26 10:20 AM, Venice, Weather by CustomWeather, © 2015

Note: Actual official high and low records may vary slightly from our data, if they occured in-between our weather recording intervals... More about our weather records

Advertising

Venice weather history for previous 24 hours

 ConditionsComfort  
Time TempWeatherWind HumidityBarometerVisibility
10:20 AM
Tue, May 26
66 °FScattered clouds.5 mph78%29.83 "Hg6 mi
9:50 AM66 °FPassing clouds.5 mph73%29.83 "Hg6 mi
9:20 AM64 °FPassing clouds.6 mph83%29.83 "Hg6 mi
8:50 AM64 °FPassing clouds.7 mph83%29.83 "Hg5 mi
8:20 AM63 °FPassing clouds.6 mph83%29.80 "Hg4 mi
7:50 AM61 °FFog.7 mph88%29.80 "Hg1 mi
7:20 AM61 °FPartly sunny.8 mph88%29.80 "Hg2 mi
6:50 AM61 °FPassing clouds.10 mph88%29.80 "Hg6 mi
6:20 AM59 °FClear.9 mph88%29.80 "Hg10 mi
5:50 AM59 °FPassing clouds.7 mph88%29.80 "HgN/A
5:20 AM61 °FClear.6 mph83%29.80 "Hg10 mi
4:50 AM61 °FClear.6 mph77%29.80 "Hg10 mi
4:20 AM61 °FClear.6 mph83%29.80 "Hg10 mi
3:50 AM59 °FClear.7 mph88%29.80 "Hg10 mi
3:20 AM61 °FPassing clouds.8 mph83%29.80 "HgN/A
2:50 AM59 °FPassing clouds.8 mph88%29.83 "HgN/A
2:20 AM59 °FPassing clouds.9 mph88%29.83 "HgN/A
1:50 AM59 °FLight rain. Passing clouds.9 mph88%29.83 "HgN/A
1:20 AM61 °FPassing clouds.9 mph83%29.83 "HgN/A
12:50 AM63 °FPassing clouds.9 mph77%29.83 "HgN/A
12:20 AM63 °FSprinkles. Partly cloudy.13 mph77%29.83 "HgN/A
11:50 PM
Mon, May 25
63 °FThundershowers. Partly cloudy.14 mph88%29.83 "Hg6 mi
11:20 PM63 °FThundershowers. Passing clouds.9 mph77%29.83 "HgN/A
10:50 PM63 °FThundershowers. Passing clouds.10 mph73%29.83 "HgN/A
10:20 PM68 °FPassing clouds.6 mph56%29.83 "HgN/A
9:50 PM68 °FThundershowers. Passing clouds.10 mph60%29.80 "HgN/A
9:20 PM68 °FThundershowers. Scattered clouds.10 mph53%29.80 "HgN/A
8:50 PM68 °FScattered clouds.13 mph73%29.80 "HgN/A
8:20 PM68 °FPassing clouds.14 mph69%29.80 "HgN/A
7:50 PM68 °FPassing clouds.14 mph73%29.80 "HgN/A
7:20 PM70 °FSunny.14 mph69%29.80 "Hg10 mi
6:50 PM70 °FPassing clouds.12 mph73%29.80 "HgN/A
6:20 PM70 °FSunny.13 mph73%29.80 "Hg10 mi
5:50 PM72 °FSunny.10 mph65%29.80 "Hg10 mi
5:20 PM72 °FSunny.12 mph69%29.80 "Hg10 mi
4:50 PM75 °FPassing clouds.8 mph50%29.80 "HgN/A
4:20 PM75 °FPassing clouds.10 mph50%29.80 "HgN/A
3:50 PM77 °FPassing clouds.10 mph47%29.83 "HgN/A
3:20 PM75 °FPassing clouds.12 mph50%29.83 "HgN/A
2:50 PM75 °FPassing clouds.12 mph50%29.83 "HgN/A
2:20 PM75 °FPassing clouds.14 mph54%29.83 "HgN/A
1:50 PM75 °FPassing clouds.12 mph54%29.86 "HgN/A
1:20 PM75 °FSunny.13 mph54%29.86 "Hg10 mi
12:50 PM73 °FSunny.10 mph53%29.86 "Hg10 mi
12:20 PM72 °FPassing clouds.9 mph57%29.86 "HgN/A
Weather by CustomWeather, © 2015

See weather overviewHow to use our weather pages